Tracking 31027 objects as of 19-Jul-2025
HD Live streaming from Space Station
objects crossing your sky now

STARLINK-33651

Track STARLINK-33651 now!
10-day predictions
STARLINK-33651 is classified as:


NORAD ID: 63588
Int'l Code: 2025-076V
Perigee: 488.5 km
Apogee: 491.8 km
Inclination: 43.0 °
Period: 94.3 minutes
Semi major axis: 6861 km
RCS: Unknown
Launch date: April 14, 2025
Source: United States (US)
Launch site: AIR FORCE EASTERN TEST RANGE (AFETR)
Your satellite tracking list
FLOCK 4V 13
Track 1 satellite(s)




NASA's NSSDC Master Catalog

Two Line Element Set (TLE):
1 63588U 25076V   25199.69374698  .00020625  00000-0  75649-3 0  9997
2 63588  43.0020 203.1789 0002394 274.2908  85.7670 15.27598378 16017
Source of the keplerian elements: AFSPC